Location: Martley
(52.2333°N, 2.3667°W)
Time: 18:15:51
(UTC+00:00)

Okean 2 - Pass Details

Date: 11 December 2019
Orbit: 560 x 577 km, 82.5° (Epoch: 26 January)

Event Time Altitude Azimuth Distance (km) Brightness Sun altitude
Rises 06:56:41 0° 353° (N) 2,776 6.6 -10.2°
Reaches altitude 10° 06:58:57 10° 359° (N) 1,872 5.8 -9.9°
Maximum altitude 07:02:56 47° 74° (ENE) 760 4.4 -9.3°
Drops below altitude 10° 07:06:52 10° 149° (SSE) 1,850 7.0 -8.8°
Sets 07:09:06 0° 155° (SSE) 2,740 7.8 -8.5°
